Theta_e
298 299 298 298 298 300 300 301 301 303 304 306 308 311 314 316 317 317 316 314 312 312 310 311 311 309 308 306 304 305 306 307 307 293 291 290 288 286 287 287 288 289 289
295 296 296 296 297 297 297 297 297 298 300 301 301 304 306 307 308 309 310 309 309 307 308 305 307 303 303 302 302 301 303 302 303 292 288 287 287 286 286 285 285 286 287
293 293 293 294 294 294 294 295 295 295 295 296 297 297 298 299 299 300 300 301 304 306 306 304 305 300 299 298 298 297 296 296 295 291 287 288 286 285 284 284 283 282 285
291 291 290 290 291 292 292 292 292 292 292 293 293 294 294 295 295 295 297 298 299 300 299 300 300 298 299 296 295 294 292 291 291 290 286 285 284 283 284 281 280 280 281
288 288 288 288 289 289 288 289 289 289 289 290 290 290 291 291 292 291 292 294 294 295 294 295 295 293 291 293 293 291 289 289 289 288 284 283 282 280 280 281 280 280 280
285 286 286 285 285 285 285 285 286 286 286 287 287 287 287 289 291 292 292 289 289 290 291 291 289 286 288 291 292 292 291 288 287 287 286 284 283 282 282 280 280 278 277
283 283 282 282 282 282 283 283 283 284 284 284 284 285 285 286 290 291 291 287 287 287 287 287 286 284 285 286 289 290 289 291 290 287 285 285 283 282 281 280 279 279 279
281 280 280 280 280 281 281 281 281 282 282 282 283 283 283 285 290 290 290 286 285 284 284 284 284 284 284 283 284 283 282 282 281 282 284 283 283 282 282 281 280 277 276
279 279 279 279 279 280 280 280 280 281 281 281 282 282 282 283 287 289 288 284 284 283 283 282 282 281 284 286 282 281 280 279 282 283 283 284 285 284 282 279 276 274 273
278 278 279 279 279 278 278 279 280 280 281 282 282 281 281 281 285 287 287 284 283 283 282 281 282 281 285 286 282 281 279 278 279 279 280 281 281 281 282 279 278 275 273
278 278 277 278 277 278 278 279 279 279 280 279 279 280 279 280 281 285 286 284 283 283 281 281 281 285 285 286 286 280 280 279 280 278 277 275 275 275 275 276 277 277 273
275 275 275 275 276 278 277 277 277 277 276 277 276 277 278 279 281 283 285 286 286 283 282 280 279 283 286 286 285 283 283 280 276 274 273 272 272 272 273 273 274 273 274
271 269 271 273 275 277 276 276 275 275 274 275 276 276 277 278 278 283 284 285 285 283 284 282 282 283 284 285 286 286 281 276 273 271 271 272 273 273 272 271 271 271 271
268 270 271 272 272 273 275 275 274 274 273 275 275 275 276 277 277 277 279 279 281 281 283 283 282 282 282 281 278 283 280 275 274 273 272 273 273 270 270 270 268 269 268
269 269 270 270 269 271 272 273 274 275 275 276 278 278 278 278 280 282 283 282 278 279 280 278 278 277 275 276 277 276 274 273 273 273 272 270 270 270 269 270 269 268 267
268 268 268 269 269 270 270 271 276 278 279 280 281 280 279 281 282 283 283 284 284 284 281 279 276 275 275 276 275 272 272 272 273 273 272 270 269 269 269 269 269 267 266
266 268 267 267 268 268 269 269 269 272 277 278 278 279 279 280 280 281 282 283 283 283 279 278 276 275 275 276 274 272 271 272 273 273 272 270 270 269 268 267 267 267 266
262 263 265 266 266 267 268 269 269 269 268 269 274 275 277 278 279 279 280 281 279 280 278 277 278 275 275 276 274 272 272 271 271 271 271 270 269 268 267 267 266 265 265
262 262 263 264 265 265 266 267 267 268 268 268 269 272 272 276 277 278 278 275 274 276 275 276 277 276 275 275 274 274 273 270 270 270 270 269 269 268 267 267 266 266 265
257 260 262 263 264 265 266 266 266 266 267 267 267 268 269 267 269 270 272 273 273 274 275 276 276 275 275 274 273 273 271 270 269 269 269 268 268 268 267 266 266 265 264
258 257 260 262 262 263 264 265 265 266 266 266 267 268 273 271 270 270 271 272 273 273 274 275 276 273 274 274 273 272 270 269 268 268 268 267 267 266 266 266 265 265 263
256 258 257 258 262 263 263 264 264 265 265 265 265 266 272 268 267 267 268 269 270 271 272 271 274 273 273 272 272 271 270 269 267 267 267 266 266 265 265 264 264 263 262
256 257 259 260 261 262 263 263 263 264 264 265 265 265 266 266 266 266 267 268 268 269 269 270 271 272 271 272 272 271 269 268 267 267 266 265 264 264 264 263 262 261 261
254 257 259 260 261 261 262 262 263 263 264 264 264 264 264 265 265 265 265 266 267 268 268 267 269 269 268 268 269 269 270 269 268 267 267 265 264 263 263 262 262 262 261
254 257 259 259 260 260 260 261 261 262 262 263 263 263 264 264 264 264 264 265 266 265 265 267 267 267 267 266 267 267 267 269 266 266 266 265 263 262 262 262 261 260 260
256 258 259 259 259 260 260 261 261 261 261 262 262 263 263 263 264 264 264 265 265 265 265 266 265 265 265 265 266 266 266 268 265 265 265 263 262 261 261 261 260 259 258
Wind_Speed
5 5 6 6 7 6 5 6 6 6 6 5 5 6 6 6 5 5 4 3 5 5 3 5 6 5 4 4 3 3 5 5 8 0 2 4 8 7 6 5 5 5 8
5 6 6 6 7 6 6 6 6 7 6 7 6 6 6 6 5 4 4 4 5 5 7 5 8 4 6 5 5 7 7 5 5 5 3 4 4 8 7 6 6 5 5
6 6 6 6 6 6 6 6 6 6 6 7 6 6 6 6 6 5 5 5 5 6 7 8 8 6 6 4 6 6 5 4 4 3 4 3 2 5 5 5 4 4 5
6 6 7 7 6 6 6 6 6 6 5 6 6 6 6 6 6 5 5 5 5 6 6 6 6 8 9 8 7 8 5 4 3 3 3 4 2 4 5 6 4 2 3
7 6 6 6 6 6 7 7 6 6 6 6 6 6 6 6 4 6 6 6 6 7 6 6 6 6 8 8 6 7 7 6 5 6 3 3 4 4 12 5 6 3 2
5 5 5 6 6 6 6 6 7 6 6 6 6 6 7 5 9 11 9 6 6 6 8 7 5 5 7 10 11 9 9 9 10 6 7 8 10 7 8 8 6 4 5
7 7 8 8 7 7 7 7 7 7 6 6 6 6 7 6 10 12 11 6 6 6 7 6 5 4 5 5 9 10 11 13 10 9 10 10 8 10 10 11 10 6 4
7 8 8 9 8 7 6 5 6 5 6 6 7 7 7 6 12 13 13 7 7 7 7 7 7 6 6 6 5 4 4 3 3 3 6 5 4 10 12 7 8 7 6
5 6 6 7 9 9 9 10 8 7 7 5 5 7 7 6 10 13 12 6 8 10 7 7 8 8 11 15 8 8 6 4 1 2 4 7 11 15 12 10 7 8 2
5 6 6 7 7 8 8 9 7 7 9 7 10 6 6 8 11 15 13 4 9 8 6 8 13 10 15 19 12 11 11 9 7 5 5 6 5 7 11 3 9 10 4
4 5 6 7 7 6 6 6 7 8 8 7 8 7 6 6 8 16 17 8 7 8 8 6 5 17 18 20 21 10 12 9 12 7 7 6 5 4 3 2 1 3 3
4 5 6 7 6 6 6 7 7 6 7 8 7 8 4 5 9 12 16 17 16 9 10 6 4 15 19 20 18 15 15 11 5 5 5 5 5 5 4 4 5 3 4
3 5 5 6 7 6 6 7 7 5 5 7 7 8 7 5 4 14 17 18 18 13 9 9 11 15 20 18 21 19 14 6 5 5 6 4 4 4 6 5 4 6 5
5 5 5 5 6 5 4 5 5 6 5 6 7 8 8 8 6 4 6 6 11 11 13 8 10 12 14 11 4 13 6 7 7 6 4 3 4 4 3 3 2 4 3
4 4 5 4 4 6 5 4 5 5 5 7 9 9 10 12 9 17 16 8 6 9 10 3 6 6 4 5 3 3 5 7 8 7 7 6 6 6 5 5 3 5 3
6 3 3 5 4 5 6 8 8 13 16 16 18 14 9 19 24 24 25 23 23 22 10 9 7 8 8 8 7 5 6 9 8 9 8 8 9 8 8 6 6 5 5
6 6 5 5 5 6 5 5 9 10 14 15 17 19 21 21 23 24 24 24 24 21 9 9 8 8 9 8 8 8 8 9 9 9 8 9 8 7 9 7 6 5 5
5 5 5 6 5 6 6 7 7 8 10 10 11 16 19 22 22 23 23 22 11 9 7 8 10 8 9 9 9 9 8 7 8 8 8 8 8 8 7 7 7 7 6
4 3 4 5 5 6 6 7 7 8 9 9 9 11 11 20 23 24 22 9 9 9 7 8 8 7 8 9 9 9 10 8 9 8 8 8 9 8 8 8 7 9 8
3 7 6 5 5 6 5 6 8 8 8 8 8 9 8 6 9 8 7 8 8 9 9 9 7 7 8 8 9 8 8 8 9 8 9 8 9 9 9 9 8 9 7
3 3 5 5 5 6 6 7 7 8 9 9 9 9 20 13 10 9 9 8 9 10 10 10 9 7 8 9 8 9 9 9 10 10 9 9 9 9 8 8 8 8 8
3 4 3 4 6 6 7 6 7 8 9 10 10 10 21 9 9 9 10 9 9 9 8 11 11 7 8 9 10 10 10 10 9 10 10 9 9 9 8 9 8 8 8
3 4 4 5 5 7 7 7 7 8 10 10 10 10 9 9 9 10 10 10 9 9 8 9 10 8 6 7 8 9 10 11 11 10 10 10 9 9 9 9 9 8 8
3 5 6 6 6 7 8 8 8 10 11 10 10 10 10 10 10 11 10 10 10 10 9 9 9 11 8 7 6 6 7 7 7 10 12 10 10 10 9 8 9 9 8
3 4 5 6 6 7 7 7 8 9 9 9 10 10 10 10 11 10 10 10 10 10 11 9 8 9 10 11 10 10 9 11 10 11 9 10 11 13 10 9 9 8 9
3 5 6 5 6 6 7 8 9 9 10 9 9 10 10 10 10 10 10 11 10 10 11 9 9 10 10 8 9 10 10 12 11 13 9 8 9 9 8 10 13 8 9
Wind_Direction
21 11 10 358 360 1 7 2 360 349 356 359 358 329 315 313 319 296 289 289 264 275 262 244 233 201 218 227 189 213 220 195 248 123 93 147 171 165 171 164 191 200 157
8 15 16 11 359 6 5 5 2 356 351 350 347 336 330 327 328 285 263 243 235 241 247 231 234 199 213 196 196 216 230 213 202 166 158 161 176 173 160 164 189 215 176
10 11 8 14 9 353 350 352 354 351 351 345 343 341 329 323 318 310 297 283 268 255 245 238 242 211 225 208 213 216 216 191 174 151 157 139 137 167 168 168 198 176 204
12 16 14 1 356 344 336 340 343 344 340 332 325 316 312 302 300 301 296 287 275 262 251 242 234 217 227 218 212 216 195 191 185 161 159 153 150 138 162 170 192 178 192
18 18 13 354 355 351 344 339 334 334 324 315 308 312 305 304 301 294 278 263 257 266 261 256 245 237 229 214 208 212 194 199 191 198 163 163 156 167 195 168 178 149 186
19 18 5 359 354 348 339 341 338 325 315 314 308 296 297 296 299 295 286 284 282 269 261 249 239 247 250 237 232 231 211 203 212 204 200 207 200 186 177 171 155 162 197
15 7 4 358 351 344 332 335 332 323 312 301 294 294 285 280 280 275 270 261 264 262 261 259 251 231 234 242 233 230 225 226 221 211 211 211 184 181 161 174 180 172 168
7 2 358 351 339 328 318 321 321 311 315 310 301 294 292 292 288 281 273 264 261 253 241 237 237 232 218 213 209 205 206 218 249 259 237 205 193 167 177 182 170 117 80
357 339 335 331 328 332 336 332 325 320 316 293 287 292 290 290 290 290 287 260 262 263 251 228 218 215 211 212 206 215 205 209 178 176 183 179 172 170 152 127 160 145 164
341 322 316 318 320 320 317 318 312 310 307 311 310 301 291 297 300 300 293 254 263 270 257 246 223 223 217 213 207 206 215 201 165 143 131 120 108 154 166 227 162 174 133
323 320 318 316 311 297 299 306 306 310 311 307 303 308 293 280 292 301 300 290 262 267 264 262 228 230 230 229 218 214 220 177 184 164 147 135 132 117 93 96 142 186 145
301 303 300 298 299 304 307 306 301 298 302 300 302 304 287 276 281 294 296 292 288 266 263 263 252 239 235 231 228 218 226 188 166 170 170 165 168 169 159 133 121 65 35
303 292 287 289 295 296 295 298 303 307 305 313 310 310 316 315 287 294 294 293 295 289 274 248 241 249 255 248 240 225 213 161 165 179 197 201 185 149 127 106 92 89 86
304 294 293 282 299 283 289 293 288 293 294 297 311 313 309 307 302 281 283 282 287 296 294 264 245 238 238 243 218 239 199 166 176 180 186 160 130 135 156 149 172 168 138
279 280 283 285 287 305 290 288 292 285 287 303 304 301 305 306 303 303 304 294 264 261 280 258 238 233 229 240 211 185 152 165 173 169 173 161 175 171 178 181 190 179 185
297 291 298 308 304 295 299 307 294 295 300 297 296 294 290 296 306 307 305 295 293 291 282 272 235 218 225 225 216 190 189 182 186 184 186 183 186 189 186 184 180 175 199
282 298 298 291 291 298 304 301 307 309 298 298 299 300 303 302 306 304 302 298 291 287 265 270 250 225 220 212 207 200 201 202 189 194 188 189 189 193 197 193 187 179 193
266 264 286 294 296 299 299 300 299 297 303 307 303 302 301 303 306 305 303 301 293 266 255 263 274 233 223 218 198 197 205 197 202 201 194 189 186 183 192 193 191 189 189
277 259 251 270 270 268 282 290 290 289 286 288 295 293 292 298 305 305 303 296 293 288 252 251 257 247 226 216 207 197 199 195 200 200 197 187 184 182 192 192 189 183 175
251 260 268 273 282 283 279 277 281 283 287 286 287 289 299 295 290 285 276 275 275 280 279 268 263 230 228 216 212 202 192 184 190 199 202 196 193 190 190 187 183 177 181
268 260 257 279 274 273 271 275 280 284 285 285 285 285 293 298 301 296 294 290 289 288 280 271 270 228 226 224 212 203 197 194 194 198 200 197 188 189 188 186 179 176 158
262 271 272 269 282 281 276 274 280 283 285 285 288 287 296 295 288 287 288 287 285 285 291 294 298 233 223 220 215 209 204 197 193 195 195 193 190 183 178 175 174 172 166
263 277 278 275 272 281 284 281 280 282 285 286 290 293 293 290 288 287 289 290 288 285 286 286 283 276 251 233 221 217 203 198 197 190 190 187 186 180 176 175 174 169 172
273 271 277 281 285 281 281 284 283 280 281 284 285 285 286 285 285 284 285 289 290 289 289 282 276 265 244 233 225 215 215 206 189 191 183 181 181 175 170 171 175 177 168
257 273 275 275 274 276 281 280 281 283 283 283 286 286 286 285 285 284 285 285 286 286 285 282 273 264 245 231 226 220 212 196 180 176 181 180 177 173 172 170 169 166 161
262 259 269 275 278 280 283 289 289 290 290 290 290 290 291 290 289 290 291 288 287 287 288 282 267 253 251 242 231 218 205 197 185 179 172 172 167 169 171 165 163 163 164